Ouarzazate, Morocco

10:51 AM WEST on July 26, 2017 (GMT +0100)
Ouarzazate

Weather History for GMMZ - June, 2014

Change the Weather History Date:

Monday, June 9, 2014

  Actual Average Record
Temperature  
Mean Temperature 81 °F -  
Max Temperature 93 °F 95 °F - ()
Min Temperature 69 °F 66 °F - ()
Cooling Degree Days 16    
Growing Degree Days 31 (Base 50)    
Moisture  
Dew Point 33 °F    
Average Humidity 17    
Maximum Humidity 31    
Minimum Humidity 4    
Precipitation  
Precipitation 0.00 in 0.00 in - ()
Sea Level Pressure  
Sea Level Pressure 29.97 in    
Wind  
Wind Speed 9 mph ()    
Max Wind Speed 26 mph    
Max Gust Speed -    
Visibility 8.9 miles    
Events      
T = Trace of Precipitation, MM = Missing Value Source: Averaged Metar Reports

Daily Weather History Graph

Daily Weather History Graph

Search for Another Location

Airport or City:

Trip Planner

Search our weather history database for the weather conditions in past years. The results will help you decide how hot, cold, wet, or windy it might be!

Date:

Astronomy

Jun. 09, 2014 Rise Set
Actual Time 6:23 AM WEST 8:30 PM WEST
Civil Twilight 5:56 AM WEST 8:57 PM WEST
Nautical Twilight 5:22 AM WEST 9:31 PM WEST
Astronomical Twilight 4:46 AM WEST 10:07 PM WEST
Moon 4:49 PM WEST (6/9) 3:27 AM WEST (6/9)
Length of Visible Light 15h 01m
Length of Day
14h 06m
Waxing Gibbous, 83% of the Moon is Illuminated
Jun 9
Waxing Gibbous
Jun 13
Full
Jun 19
Last Quarter
Jun 27
New
Jul 5
First Quarter

Hourly Weather History & Observations

Time (WEST) Temp. Dew Point Humidity Pressure Visibility Wind Dir Wind Speed Gust Speed Precip Events Conditions
12:00 AM 77.0 °F 35.6 °F 22% 30.06 in - West 9.2 mph - N/A   Clear
1:00 AM 75 °F 34 °F 13%  in 12 mi West 13.8 mph - -  
1:00 AM 75.2 °F 33.8 °F 22% 30.04 in - West 13.8 mph - N/A   Clear
2:00 AM 73.4 °F 32.0 °F 22% 30.01 in - WSW 9.2 mph - N/A   Clear
3:00 AM - - N/A% 30.01 in - WSW 10.4 mph - N/A   Clear
4:00 AM 72 °F 30 °F 12%  in 12 mi WSW 11.5 mph - -  
4:00 AM 71.6 °F 30.2 °F 22% 30.01 in - WSW 11.5 mph - N/A   Clear
5:00 AM 71.6 °F 30.2 °F 22% 29.98 in - West 10.4 mph - N/A   Unknown
6:00 AM 71.6 °F 30.2 °F 22% 29.98 in - West 9.2 mph - N/A   Clear
7:00 AM 70 °F 30 °F 13%  in 12 mi West 9.2 mph - -  
7:00 AM 69.8 °F 30.2 °F 23% 29.98 in - West 9.2 mph - N/A   Clear
8:00 AM 73.4 °F 35.6 °F 25% 30.01 in - West 5.8 mph - N/A   Clear
9:00 AM 78.8 °F 37.4 °F 23% 30.01 in - Variable 1.2 mph - N/A   Clear
10:00 AM 82 °F 36 °F 10%  in 12 mi Calm Calm - -  
11:00 AM 86.0 °F 32.0 °F 14% 30.01 in - Variable 1.2 mph - N/A   Clear
12:00 PM 86.0 °F 32.0 °F 14% 30.01 in - Variable 2.3 mph - N/A   Clear
1:00 PM 88 °F 27 °F 5%  in 12 mi SSE 5.8 mph - -   Scattered Clouds
1:00 PM 87.8 °F 26.6 °F 11% 29.98 in 6.2 mi SSE 4.6 mph - N/A   Partly Cloudy
2:00 PM 91.4 °F 26.6 °F 10% 29.95 in 6.2 mi Variable 3.5 mph - N/A   Partly Cloudy
3:00 PM 91.4 °F 24.8 °F 9% 29.92 in 6.2 mi Variable 3.5 mph - N/A   Partly Cloudy
4:00 PM 93 °F 25 °F 4%  in 12 mi Calm Calm - -   Scattered Clouds
4:00 PM 93.2 °F 24.8 °F 9% 29.89 in 6.2 mi Variable 2.3 mph - N/A   Partly Cloudy
5:00 PM 93.2 °F 23.0 °F 8% 29.86 in 6.2 mi WSW 4.6 mph - N/A   Partly Cloudy
6:00 PM 93.2 °F 33.8 °F 12% 29.86 in 6.2 mi NW 18.4 mph - N/A   Partly Cloudy
7:00 PM 87 °F 38 °F 10%  in 12 mi NNW 26.5 mph - -   Scattered Clouds
9:00 PM 78.8 °F 42.8 °F 28% 29.92 in 6.2 mi NNW 21.9 mph - N/A   Partly Cloudy
10:00 PM 77 °F 43 °F 19%  in 12 mi NW 15.0 mph - -   Scattered Clouds
10:00 PM 77.0 °F 42.8 °F 29% 29.95 in 6.2 mi NW 13.8 mph - N/A   Partly Cloudy
11:00 PM 75.2 °F 42.8 °F 31% 29.95 in 6.2 mi NW 21.9 mph - N/A   Partly Cloudy